Location: Unspecified
(43.8353°N, 0.0000°E)
Time: 05:19:48
(UTC+00:00)

Vanguard 2 - Visible Passes

Search period start: 04 April 2026 00:00
Search period end: 14 April 2026 00:00
Orbit: 554 x 2896 km, 32.9° (Epoch: 29 March)

Date Brightness Start Highest point End Pass type
(mag) Time Alt. Az. Time Alt. Az. Time Alt. Az.
4 Apr 10.5 20:01:40 10° W 20:11:23 36° SSW 20:21:32 18° SSE visible
4 Apr 11.2 22:12:32 10° WSW 22:21:03 19° SW 22:22:27 18° SSW visible
5 Apr 10.6 20:13:45 10° WSW 20:23:02 31° SSW 20:32:33 17° SSE visible
5 Apr 11.4 22:26:24 10° WSW 22:32:35 14° SW 22:33:29 14° SSW visible
6 Apr 10.8 20:26:00 10° WSW 20:34:42 26° SSW 20:43:38 15° SSE visible
7 Apr 11.0 20:38:32 10° WSW 20:46:21 21° SSW 20:54:45 13° S visible
8 Apr 11.2 20:51:35 10° WSW 20:58:00 16° SSW 21:05:46 10° S visible
9 Apr 10.6 18:53:29 10° WSW 19:00:30 26° SSW 19:10:29 10° SSE visible
9 Apr 11.4 21:06:04 10° SW 21:09:39 12° SSW 21:13:37 10° SSW visible
10 Apr 10.7 19:05:48 10° WSW 19:12:13 22° SSW 19:20:55 10° SSE visible
11 Apr 10.9 19:18:31 10° WSW 19:23:56 17° SSW 19:30:49 10° S visible
12 Apr 11.2 19:32:08 10° SW 19:35:39 12° SSW 19:39:41 10° S visible
